Total_Precipitation_Accumulation
1.55 1.46 1.46 1.42 1.39 1.40 1.47 1.65 1.97 1.81 1.22 0.92 0.95 1.01 1.10 1.20 1.25 1.16 1.11 1.34 1.43 1.48 1.57 1.65 1.75 1.92 2.26 2.83 3.49 4.43 5.08 4.79 3.98 3.42 3.39 3.79 4.32 4.82
1.64 1.61 1.48 1.40 1.43 1.47 1.55 1.57 1.68 1.85 1.53 0.93 0.83 0.92 1.08 1.27 1.39 1.18 1.14 1.36 1.40 1.47 1.47 1.48 1.63 1.80 2.03 2.33 2.73 3.34 4.27 4.80 4.61 4.09 3.72 3.86 4.18 4.62
1.61 1.64 1.53 1.43 1.55 1.59 1.66 1.69 1.64 1.69 1.73 1.13 0.89 0.96 1.21 1.36 1.45 1.31 1.28 1.27 1.28 1.42 1.47 1.47 1.52 1.72 1.90 2.07 2.28 2.66 3.34 4.10 4.59 4.65 4.36 4.14 4.19 4.30
1.60 1.62 1.60 1.52 1.54 1.58 1.68 1.69 1.61 1.54 1.65 1.45 1.13 1.12 1.27 1.42 1.48 1.45 1.42 1.38 1.26 1.37 1.44 1.52 1.52 1.65 1.85 1.96 2.07 2.28 2.66 3.21 3.80 4.31 4.49 4.21 4.10 4.15
1.55 1.60 1.63 1.63 1.55 1.51 1.60 1.65 1.58 1.53 1.59 1.62 1.36 1.22 1.32 1.48 1.64 1.68 1.62 1.60 1.44 1.43 1.44 1.53 1.62 1.64 1.78 1.91 2.03 2.14 2.26 2.44 2.86 3.54 4.17 4.26 4.07 4.08
1.46 1.46 1.55 1.68 1.70 1.69 1.70 1.66 1.68 1.77 1.76 1.77 1.60 1.42 1.45 1.57 1.76 1.86 1.88 1.82 1.72 1.54 1.57 1.63 1.70 1.75 1.73 1.75 1.77 1.83 1.96 2.26 2.62 3.10 3.58 3.98 4.03 4.01
1.41 1.33 1.42 1.70 1.92 2.09 2.13 1.96 1.98 2.15 2.13 2.09 1.94 1.72 1.60 1.66 1.80 1.80 1.91 1.87 1.86 1.73 1.63 1.64 1.63 1.61 1.60 1.62 1.66 1.69 1.77 1.99 2.29 2.61 3.01 3.39 3.71 3.92
1.47 1.33 1.35 1.64 1.84 2.02 2.19 2.15 2.15 2.34 2.46 2.40 2.21 1.92 1.56 1.45 1.56 1.81 2.07 2.28 2.27 1.94 1.75 1.78 1.62 1.68 1.63 1.52 1.67 1.74 1.76 1.92 2.14 2.35 2.61 2.89 3.22 3.62
1.39 1.35 1.39 1.49 1.66 1.68 1.87 1.95 1.93 2.08 2.32 2.42 2.39 1.92 1.67 1.56 1.82 2.13 2.18 2.30 2.18 2.06 2.07 2.17 1.84 1.78 1.68 1.69 1.81 1.76 1.82 1.88 2.01 2.17 2.38 2.58 2.81 3.17
1.48 1.38 1.32 1.36 1.50 1.70 1.81 1.80 1.69 1.72 1.93 2.11 2.31 2.09 1.88 1.92 2.28 2.63 2.76 2.74 2.44 2.26 2.21 2.49 2.10 1.87 1.77 1.74 1.83 1.72 1.72 1.80 1.89 1.98 2.15 2.36 2.56 2.81
1.55 1.46 1.33 1.27 1.52 1.74 1.70 1.66 1.56 1.58 1.71 1.93 2.10 2.16 2.19 2.35 2.69 3.17 3.39 3.40 3.10 2.65 2.37 2.45 2.31 2.14 2.13 2.12 2.05 1.93 1.73 1.69 1.76 1.85 1.95 2.09 2.31 2.64
1.58 1.51 1.57 1.53 1.67 1.71 1.57 1.65 1.76 1.60 1.50 1.55 1.62 1.67 1.70 1.86 2.34 2.82 3.25 3.45 3.22 3.07 2.59 2.42 2.40 2.46 2.93 2.71 2.30 1.97 1.78 1.74 1.70 1.71 1.75 1.81 2.00 2.14
1.59 1.58 1.50 1.70 1.73 1.71 1.67 1.62 1.80 1.68 1.55 1.61 1.59 1.52 1.51 1.63 1.82 2.17 2.74 3.26 3.34 3.07 2.61 2.71 2.86 2.53 2.78 2.87 2.55 2.13 1.77 1.66 1.58 1.63 1.65 1.69 1.74 1.79
1.60 1.48 1.45 1.66 1.70 1.74 1.68 1.72 1.78 1.74 1.63 1.65 1.57 1.47 1.47 1.58 1.73 1.94 2.25 2.63 2.82 2.78 2.52 2.75 3.23 2.85 2.61 2.47 2.41 2.30 1.94 1.72 1.55 1.50 1.50 1.75 1.82 1.84
1.73 1.76 1.70 1.77 1.78 1.66 1.63 1.67 1.61 1.51 1.59 1.66 1.55 1.37 1.31 1.43 1.56 1.71 1.84 2.07 2.30 2.38 2.44 2.56 2.86 2.88 2.77 2.56 2.16 2.00 2.01 2.01 1.73 1.56 1.52 1.56 1.60 1.64
1.88 1.86 1.84 1.85 1.80 1.72 1.64 1.50 1.39 1.41 1.52 1.54 1.44 1.32 1.23 1.29 1.45 1.57 1.72 1.85 2.17 2.35 2.39 2.50 2.76 3.06 3.04 2.41 2.12 1.93 1.75 2.06 2.00 1.72 1.61 1.59 1.52 1.44
1.94 1.99 1.92 1.86 1.85 1.71 1.51 1.34 1.29 1.38 1.45 1.36 1.35 1.36 1.33 1.33 1.35 1.40 1.61 1.76 2.02 2.16 2.32 2.56 2.80 2.96 3.06 2.82 2.51 2.05 1.73 1.73 1.81 1.71 1.66 1.73 1.75 1.61
2.04 2.01 1.80 1.59 1.52 1.46 1.38 1.31 1.25 1.26 1.25 1.28 1.34 1.34 1.33 1.35 1.36 1.35 1.48 1.68 1.87 1.95 2.07 2.31 2.66 2.97 3.14 3.18 2.80 2.20 1.84 1.77 1.85 1.79 1.67 1.73 1.92 1.84
1.83 1.64 1.49 1.40 1.34 1.29 1.25 1.23 1.22 1.15 1.16 1.25 1.31 1.30 1.27 1.31 1.37 1.39 1.44 1.58 1.72 1.86 1.99 2.11 2.41 2.81 3.02 3.17 3.17 2.56 2.10 1.91 1.95 2.10 1.95 1.73 1.79 1.87
1.49 1.45 1.40 1.35 1.35 1.36 1.33 1.29 1.23 1.19 1.21 1.23 1.25 1.25 1.28 1.35 1.38 1.36 1.38 1.53 1.64 1.75 1.91 2.04 2.31 2.64 2.88 2.84 2.96 2.91 2.62 2.22 2.05 2.23 2.19 1.95 1.87 2.00
1.35 1.36 1.35 1.36 1.39 1.40 1.34 1.30 1.29 1.23 1.17 1.18 1.17 1.16 1.19 1.30 1.32 1.25 1.31 1.46 1.57 1.67 1.82 1.94 2.13 2.36 2.52 2.59 2.64 2.66 2.79 2.75 2.32 2.20 2.20 2.18 2.12 2.12
1.32 1.35 1.34 1.36 1.41 1.42 1.37 1.32 1.31 1.26 1.18 1.16 1.12 1.10 1.12 1.21 1.27 1.26 1.32 1.41 1.44 1.53 1.68 1.81 1.92 2.15 2.41 2.64 2.61 2.49 2.63 2.79 2.73 2.46 2.25 2.14 2.22 2.35
1.41 1.42 1.41 1.39 1.38 1.38 1.37 1.31 1.28 1.24 1.17 1.15 1.12 1.11 1.13 1.18 1.19 1.25 1.30 1.33 1.37 1.42 1.54 1.77 1.94 2.10 2.34 2.49 2.56 2.44 2.39 2.52 2.55 2.55 2.66 2.34 1.91 1.75